Year,Month,Day,Hour,Minute,Value (Times are PST for temperature in C)
2017,06,25,00,00,20.90
2017,06,25,00,01,20.90
2017,06,25,00,02,20.90
2017,06,25,00,03,20.90
2017,06,25,00,04,20.90
2017,06,25,00,05,20.90
2017,06,25,00,06,20.80
2017,06,25,00,07,20.80
2017,06,25,00,08,20.80
2017,06,25,00,09,20.80
2017,06,25,00,10,20.80
2017,06,25,00,11,20.80
2017,06,25,00,12,20.80
2017,06,25,00,13,20.70
2017,06,25,00,14,20.70
2017,06,25,00,15,20.70
2017,06,25,00,16,20.70
2017,06,25,00,17,20.70
2017,06,25,00,18,20.70
2017,06,25,00,19,20.60
2017,06,25,00,20,20.60
2017,06,25,00,21,20.60
2017,06,25,00,22,20.60
2017,06,25,00,23,20.50
2017,06,25,00,24,20.50
2017,06,25,00,25,20.40
2017,06,25,00,26,20.40
2017,06,25,00,27,20.40
2017,06,25,00,28,20.40
2017,06,25,00,29,20.30
2017,06,25,00,30,20.30
2017,06,25,00,31,20.20
2017,06,25,00,32,20.20
2017,06,25,00,33,20.20
2017,06,25,00,34,20.20
2017,06,25,00,35,20.20
2017,06,25,00,36,20.10
2017,06,25,00,37,20.10
2017,06,25,00,38,20.10
2017,06,25,00,39,20.00
2017,06,25,00,40,20.00
2017,06,25,00,41,20.00
2017,06,25,00,42,20.00
2017,06,25,00,43,20.00
2017,06,25,00,44,19.90
2017,06,25,00,45,19.90
2017,06,25,00,46,19.90
2017,06,25,00,47,19.90
2017,06,25,00,48,19.90
2017,06,25,00,49,19.90
2017,06,25,00,50,19.90
2017,06,25,00,51,19.90
2017,06,25,00,52,19.90
2017,06,25,00,53,19.90
2017,06,25,00,54,19.90
2017,06,25,00,55,19.90
2017,06,25,00,56,19.90
2017,06,25,00,57,19.90
2017,06,25,00,58,19.90
2017,06,25,00,59,19.80
2017,06,25,01,00,19.80
2017,06,25,01,01,19.80
2017,06,25,01,02,19.80
2017,06,25,01,03,19.80
2017,06,25,01,04,19.80
2017,06,25,01,05,19.80
2017,06,25,01,06,19.80
2017,06,25,01,07,19.80
2017,06,25,01,08,19.80
2017,06,25,01,09,19.80
2017,06,25,01,10,19.80
2017,06,25,01,11,19.80
2017,06,25,01,12,19.80
2017,06,25,01,13,19.80
2017,06,25,01,14,19.80
2017,06,25,01,15,19.80
2017,06,25,01,16,19.80
2017,06,25,01,17,19.80
2017,06,25,01,18,19.80
2017,06,25,01,19,19.80
2017,06,25,01,20,19.70
2017,06,25,01,21,19.70
2017,06,25,01,22,19.70
2017,06,25,01,23,19.70
2017,06,25,01,24,19.70
2017,06,25,01,25,19.70
2017,06,25,01,26,19.70
2017,06,25,01,27,19.60
2017,06,25,01,28,19.60
2017,06,25,01,29,19.60
2017,06,25,01,30,19.60
2017,06,25,01,31,19.60
2017,06,25,01,32,19.60
2017,06,25,01,33,19.60
2017,06,25,01,34,19.60
2017,06,25,01,35,19.50
2017,06,25,01,36,19.50
2017,06,25,01,37,19.50
2017,06,25,01,38,19.50
2017,06,25,01,39,19.40
2017,06,25,01,40,19.40
2017,06,25,01,41,19.40
2017,06,25,01,42,19.40
2017,06,25,01,43,19.30
2017,06,25,01,44,19.30
2017,06,25,01,45,19.30
2017,06,25,01,46,19.30
2017,06,25,01,47,19.30
2017,06,25,01,48,19.30
2017,06,25,01,49,19.30
2017,06,25,01,50,19.20
2017,06,25,01,51,19.20
2017,06,25,01,52,19.20
2017,06,25,01,53,19.20
2017,06,25,01,54,19.20
2017,06,25,01,55,19.20
2017,06,25,01,56,19.10
2017,06,25,01,57,19.10
2017,06,25,01,58,19.10
2017,06,25,01,59,19.10
2017,06,25,02,00,19.10
2017,06,25,02,01,19.10
2017,06,25,02,02,19.00
2017,06,25,02,03,19.10
2017,06,25,02,04,19.10
2017,06,25,02,05,19.10
2017,06,25,02,06,19.10
2017,06,25,02,07,19.10
2017,06,25,02,08,19.10
2017,06,25,02,09,19.10
2017,06,25,02,10,19.20
2017,06,25,02,11,19.20
2017,06,25,02,12,19.20
2017,06,25,02,13,19.20
2017,06,25,02,14,19.20
2017,06,25,02,15,19.20
2017,06,25,02,16,19.10
2017,06,25,02,17,19.10
2017,06,25,02,18,19.10
2017,06,25,02,19,19.10
2017,06,25,02,20,19.10
2017,06,25,02,21,19.10
2017,06,25,02,22,19.00
2017,06,25,02,23,19.00
2017,06,25,02,24,18.90
2017,06,25,02,25,18.90
2017,06,25,02,26,18.80
2017,06,25,02,27,18.80
2017,06,25,02,28,18.80
2017,06,25,02,29,18.80
2017,06,25,02,30,18.80
2017,06,25,02,31,18.80
2017,06,25,02,32,18.80
2017,06,25,02,33,18.80
2017,06,25,02,34,18.70
2017,06,25,02,35,18.70
2017,06,25,02,36,18.80
2017,06,25,02,37,18.80
2017,06,25,02,38,18.80
2017,06,25,02,39,18.80
2017,06,25,02,40,18.80
2017,06,25,02,41,18.80
2017,06,25,02,42,18.80
2017,06,25,02,43,18.80
2017,06,25,02,44,18.80
2017,06,25,02,45,18.80
2017,06,25,02,46,18.80
2017,06,25,02,47,18.80
2017,06,25,02,48,18.80
2017,06,25,02,49,18.80
2017,06,25,02,50,18.90
2017,06,25,02,51,18.90
2017,06,25,02,52,19.10
2017,06,25,02,53,19.20
2017,06,25,02,54,19.30
2017,06,25,02,55,19.50
2017,06,25,02,56,19.60
2017,06,25,02,57,19.70
2017,06,25,02,58,19.70
2017,06,25,02,59,19.80
2017,06,25,03,00,19.90
2017,06,25,03,01,19.90
2017,06,25,03,02,19.90
2017,06,25,03,03,19.90
2017,06,25,03,04,19.80
2017,06,25,03,05,19.80
2017,06,25,03,06,19.70
2017,06,25,03,07,19.60
2017,06,25,03,08,19.50
2017,06,25,03,09,19.30
2017,06,25,03,10,19.20
2017,06,25,03,11,19.10
2017,06,25,03,12,19.00
2017,06,25,03,13,19.00
2017,06,25,03,14,18.90
2017,06,25,03,15,18.80
2017,06,25,03,16,18.80
2017,06,25,03,17,18.80
2017,06,25,03,18,18.80
2017,06,25,03,19,18.80
2017,06,25,03,20,18.80
2017,06,25,03,21,18.80
2017,06,25,03,22,18.90
2017,06,25,03,23,18.90
2017,06,25,03,24,19.00
2017,06,25,03,25,19.00
2017,06,25,03,26,19.10
2017,06,25,03,27,19.20
2017,06,25,03,28,19.20
2017,06,25,03,29,19.20
2017,06,25,03,30,19.20
2017,06,25,03,31,19.20
2017,06,25,03,32,19.20
2017,06,25,03,33,19.30
2017,06,25,03,34,19.30
2017,06,25,03,35,19.20
2017,06,25,03,36,19.20
2017,06,25,03,37,19.20
2017,06,25,03,38,19.20
2017,06,25,03,39,19.10
2017,06,25,03,40,19.10
2017,06,25,03,41,19.10
2017,06,25,03,42,19.10
2017,06,25,03,43,19.10
2017,06,25,03,44,19.00
2017,06,25,03,45,19.00
2017,06,25,03,46,18.90
2017,06,25,03,47,18.90
2017,06,25,03,48,18.90
2017,06,25,03,49,18.80
2017,06,25,03,50,18.80
2017,06,25,03,51,18.70
2017,06,25,03,52,18.70
2017,06,25,03,53,18.70
2017,06,25,03,54,18.60
2017,06,25,03,55,18.60
2017,06,25,03,56,18.60
2017,06,25,03,57,18.60
2017,06,25,03,58,18.60
2017,06,25,03,59,18.50
2017,06,25,04,00,18.50
2017,06,25,04,01,18.50
2017,06,25,04,02,18.40
2017,06,25,04,03,18.40
2017,06,25,04,04,18.40
2017,06,25,04,05,18.30
2017,06,25,04,06,18.30
2017,06,25,04,07,18.30
2017,06,25,04,08,18.30
2017,06,25,04,09,18.30
2017,06,25,04,10,18.30
2017,06,25,04,11,18.30
2017,06,25,04,12,18.30
2017,06,25,04,13,18.30
2017,06,25,04,14,18.20
2017,06,25,04,15,18.20
2017,06,25,04,16,18.20
2017,06,25,04,17,18.10
2017,06,25,04,18,18.10
2017,06,25,04,19,18.10
2017,06,25,04,20,18.10
2017,06,25,04,21,18.10
2017,06,25,04,22,18.00
2017,06,25,04,23,18.00
2017,06,25,04,24,18.00
2017,06,25,04,25,17.90
2017,06,25,04,26,17.90
2017,06,25,04,27,17.90
2017,06,25,04,28,17.90
2017,06,25,04,29,17.80
2017,06,25,04,30,17.80
2017,06,25,04,31,17.90
2017,06,25,04,32,17.90
2017,06,25,04,33,17.90
2017,06,25,04,34,18.00
2017,06,25,04,35,18.00
2017,06,25,04,36,18.00
2017,06,25,04,37,18.00
2017,06,25,04,38,18.00
2017,06,25,04,39,18.00
2017,06,25,04,40,17.90
2017,06,25,04,41,17.90
2017,06,25,04,42,17.80
2017,06,25,04,43,17.80
2017,06,25,04,44,17.70
2017,06,25,04,45,17.70
2017,06,25,04,46,17.70
2017,06,25,04,47,17.70
2017,06,25,04,48,17.70
2017,06,25,04,49,17.80
2017,06,25,04,50,17.90
2017,06,25,04,51,18.10
2017,06,25,04,52,18.30
2017,06,25,04,53,18.50
2017,06,25,04,54,18.70
2017,06,25,04,55,18.80
2017,06,25,04,56,19.00
2017,06,25,04,57,19.20
2017,06,25,04,58,19.30
2017,06,25,04,59,19.40
2017,06,25,05,00,19.50
2017,06,25,05,01,19.40
2017,06,25,05,02,19.40
2017,06,25,05,03,19.30
2017,06,25,05,04,19.20
2017,06,25,05,05,18.90
2017,06,25,05,06,18.70
2017,06,25,05,07,18.50
2017,06,25,05,08,18.30
2017,06,25,05,09,18.10
2017,06,25,05,10,17.80
2017,06,25,05,11,17.60
2017,06,25,05,12,17.50
2017,06,25,05,13,17.30
2017,06,25,05,14,17.30
2017,06,25,05,15,17.20
2017,06,25,05,16,17.30
2017,06,25,05,17,17.30
2017,06,25,05,18,17.30
2017,06,25,05,19,17.20
2017,06,25,05,20,17.10
2017,06,25,05,21,17.00
2017,06,25,05,22,16.90
2017,06,25,05,23,16.80
2017,06,25,05,24,16.70
2017,06,25,05,25,16.60
2017,06,25,05,26,16.50
2017,06,25,05,27,16.50
2017,06,25,05,28,16.40
2017,06,25,05,29,16.40
2017,06,25,05,30,16.50
2017,06,25,05,31,16.50
2017,06,25,05,32,16.60
2017,06,25,05,33,16.70
2017,06,25,05,34,16.70
2017,06,25,05,35,16.80
2017,06,25,05,36,16.80
2017,06,25,05,37,16.80
2017,06,25,05,38,16.80
2017,06,25,05,39,16.80
2017,06,25,05,40,16.80
2017,06,25,05,41,16.80
2017,06,25,05,42,16.90
2017,06,25,05,43,16.90
2017,06,25,05,44,16.90
2017,06,25,05,45,17.10
2017,06,25,05,46,17.20
2017,06,25,05,47,17.50
2017,06,25,05,48,17.70
2017,06,25,05,49,18.00
2017,06,25,05,50,18.30
2017,06,25,05,51,18.50
2017,06,25,05,52,18.80
2017,06,25,05,53,19.10
2017,06,25,05,54,19.30
2017,06,25,05,55,19.50
2017,06,25,05,56,19.70
2017,06,25,05,57,19.80
2017,06,25,05,58,20.00
2017,06,25,05,59,20.20
2017,06,25,06,00,20.40
2017,06,25,06,01,20.50
2017,06,25,06,02,20.70
2017,06,25,06,03,20.80
2017,06,25,06,04,20.90
2017,06,25,06,05,20.90
2017,06,25,06,06,21.00
2017,06,25,06,07,21.20
2017,06,25,06,08,21.20
2017,06,25,06,09,21.30
2017,06,25,06,10,21.30
2017,06,25,06,11,21.40
2017,06,25,06,12,21.40
2017,06,25,06,13,21.50
2017,06,25,06,14,21.60
2017,06,25,06,15,21.60
2017,06,25,06,16,21.70
2017,06,25,06,17,21.70
2017,06,25,06,18,21.70
2017,06,25,06,19,21.80
2017,06,25,06,20,21.80
2017,06,25,06,21,21.80
2017,06,25,06,22,21.80
2017,06,25,06,23,21.80
2017,06,25,06,24,21.90
2017,06,25,06,25,21.90
2017,06,25,06,26,21.90
2017,06,25,06,27,21.90
2017,06,25,06,28,21.90
2017,06,25,06,29,21.80
2017,06,25,06,30,21.80
2017,06,25,06,31,21.80
2017,06,25,06,32,21.70
2017,06,25,06,33,21.70
2017,06,25,06,34,21.70
2017,06,25,06,35,21.60
2017,06,25,06,36,21.60
2017,06,25,06,37,21.60
2017,06,25,06,38,21.60
2017,06,25,06,39,21.50
2017,06,25,06,40,21.50
2017,06,25,06,41,21.40
2017,06,25,06,42,21.20
2017,06,25,06,43,21.10
2017,06,25,06,44,21.00
2017,06,25,06,45,21.00
2017,06,25,06,46,21.00
2017,06,25,06,47,20.90
2017,06,25,06,48,20.80
2017,06,25,06,49,20.80
2017,06,25,06,50,20.80
2017,06,25,06,51,20.80
2017,06,25,06,52,20.80
2017,06,25,06,53,20.80
2017,06,25,06,54,20.80
2017,06,25,06,55,20.80
2017,06,25,06,56,20.80
2017,06,25,06,57,20.80
2017,06,25,06,58,20.70
2017,06,25,06,59,20.70
2017,06,25,07,00,20.70
2017,06,25,07,01,20.60
2017,06,25,07,02,20.60
2017,06,25,07,03,20.60
2017,06,25,07,04,20.60
2017,06,25,07,05,20.60
2017,06,25,07,06,20.60
2017,06,25,07,07,20.60
2017,06,25,07,08,20.60
2017,06,25,07,09,20.60
2017,06,25,07,10,20.70
2017,06,25,07,11,20.70
2017,06,25,07,12,20.80
2017,06,25,07,13,20.90
2017,06,25,07,14,21.00
2017,06,25,07,15,21.00
2017,06,25,07,16,21.20
2017,06,25,07,17,21.20
2017,06,25,07,18,21.30
2017,06,25,07,19,21.40
2017,06,25,07,20,21.40
2017,06,25,07,21,21.50
2017,06,25,07,22,21.50
2017,06,25,07,23,21.60
2017,06,25,07,24,21.60
2017,06,25,07,25,21.60
2017,06,25,07,26,21.60
2017,06,25,07,27,21.60
2017,06,25,07,28,21.70
2017,06,25,07,29,21.70
2017,06,25,07,30,21.70
2017,06,25,07,31,21.70
2017,06,25,07,32,21.70
2017,06,25,07,33,21.70
2017,06,25,07,34,21.70
2017,06,25,07,35,21.70
2017,06,25,07,36,21.70
2017,06,25,07,37,21.60
2017,06,25,07,38,21.60
2017,06,25,07,39,21.60
2017,06,25,07,40,21.50
2017,06,25,07,41,21.40
2017,06,25,07,42,21.40
2017,06,25,07,43,21.40
2017,06,25,07,44,21.30
2017,06,25,07,45,21.30
2017,06,25,07,46,21.30
2017,06,25,07,47,21.30
2017,06,25,07,48,21.30
2017,06,25,07,49,21.20
2017,06,25,07,50,21.20
2017,06,25,07,51,21.20
2017,06,25,07,52,21.20
2017,06,25,07,53,21.20
2017,06,25,07,54,21.20
2017,06,25,07,55,21.20
2017,06,25,07,56,21.20
2017,06,25,07,57,21.20
2017,06,25,07,58,21.20
2017,06,25,07,59,21.20
2017,06,25,08,00,21.30
2017,06,25,08,01,21.20
2017,06,25,08,02,21.30
2017,06,25,08,03,21.30
2017,06,25,08,04,21.30
2017,06,25,08,05,21.30
2017,06,25,08,06,21.30
2017,06,25,08,07,21.30
2017,06,25,08,08,21.40
2017,06,25,08,09,21.50
2017,06,25,08,10,21.60
2017,06,25,08,11,21.60
2017,06,25,08,12,21.70
2017,06,25,08,13,21.70
2017,06,25,08,14,21.80
2017,06,25,08,15,21.80
2017,06,25,08,16,21.80
2017,06,25,08,17,21.80
2017,06,25,08,18,21.80
2017,06,25,08,19,21.90
2017,06,25,08,20,21.90
2017,06,25,08,21,22.00
2017,06,25,08,22,22.00
2017,06,25,08,23,22.00
2017,06,25,08,24,22.00
2017,06,25,08,25,22.10
2017,06,25,08,26,22.10
2017,06,25,08,27,22.10
2017,06,25,08,28,22.10
2017,06,25,08,29,22.10
2017,06,25,08,30,22.20
2017,06,25,08,31,22.20
2017,06,25,08,32,22.20
2017,06,25,08,33,22.20
2017,06,25,08,34,22.20
2017,06,25,08,35,22.20
2017,06,25,08,36,22.20
2017,06,25,08,37,22.30
2017,06,25,08,38,22.30
2017,06,25,08,39,22.30
2017,06,25,08,40,22.30
2017,06,25,08,41,22.30
2017,06,25,08,42,22.30
2017,06,25,08,43,22.40
2017,06,25,08,44,22.40
2017,06,25,08,45,22.40
2017,06,25,08,46,22.50
2017,06,25,08,47,22.60
2017,06,25,08,48,22.60
2017,06,25,08,49,22.60
2017,06,25,08,50,22.70
2017,06,25,08,51,22.70
2017,06,25,08,52,22.70
2017,06,25,08,53,22.70
2017,06,25,08,54,22.80
2017,06,25,08,55,22.80
2017,06,25,08,56,22.90
2017,06,25,08,57,22.90
2017,06,25,08,58,22.90
2017,06,25,08,59,22.90
2017,06,25,09,00,22.90
2017,06,25,09,01,23.00
2017,06,25,09,02,23.00
2017,06,25,09,03,23.10
2017,06,25,09,04,23.10
2017,06,25,09,05,23.10
2017,06,25,09,06,23.10
2017,06,25,09,07,23.10
2017,06,25,09,08,23.10
2017,06,25,09,09,23.10
2017,06,25,09,10,23.10
2017,06,25,09,11,23.20
2017,06,25,09,12,23.20
2017,06,25,09,13,23.20
2017,06,25,09,14,23.20
2017,06,25,09,15,23.30
2017,06,25,09,16,23.20
2017,06,25,09,17,23.20
2017,06,25,09,18,23.20
2017,06,25,09,19,23.10
2017,06,25,09,20,23.10
2017,06,25,09,21,23.10
2017,06,25,09,22,23.00
2017,06,25,09,23,23.00
2017,06,25,09,24,22.90
2017,06,25,09,25,22.90
2017,06,25,09,26,22.90
2017,06,25,09,27,22.90
2017,06,25,09,28,22.90
2017,06,25,09,29,23.00
2017,06,25,09,30,23.10
2017,06,25,09,31,23.10
2017,06,25,09,32,23.20
2017,06,25,09,33,23.20
2017,06,25,09,34,23.30
2017,06,25,09,35,23.30
2017,06,25,09,36,23.30
2017,06,25,09,37,23.20
2017,06,25,09,38,23.30
2017,06,25,09,39,23.30
2017,06,25,09,40,23.40
2017,06,25,09,41,23.40
2017,06,25,09,42,23.50
2017,06,25,09,43,23.60
2017,06,25,09,44,23.60
2017,06,25,09,45,23.70
2017,06,25,09,46,23.70
2017,06,25,09,47,23.80
2017,06,25,09,48,23.70
2017,06,25,09,49,23.70
2017,06,25,09,50,23.70
2017,06,25,09,51,23.70
2017,06,25,09,52,23.70
2017,06,25,09,53,23.70
2017,06,25,09,54,23.80
2017,06,25,09,55,23.80
2017,06,25,09,56,23.80
2017,06,25,09,57,23.80
2017,06,25,09,58,23.80
2017,06,25,09,59,23.70
2017,06,25,10,00,23.70
2017,06,25,10,01,23.80
2017,06,25,10,02,23.80
2017,06,25,10,03,23.80
2017,06,25,10,04,23.70
2017,06,25,10,05,23.80
2017,06,25,10,06,23.80
2017,06,25,10,07,23.80
2017,06,25,10,08,23.80
2017,06,25,10,09,23.90
2017,06,25,10,10,23.90
2017,06,25,10,11,23.90
2017,06,25,10,12,23.90
2017,06,25,10,13,23.80
2017,06,25,10,14,23.80
2017,06,25,10,15,23.80
2017,06,25,10,16,23.90
2017,06,25,10,17,23.90
2017,06,25,10,18,23.90
2017,06,25,10,19,23.90
2017,06,25,10,20,24.00
2017,06,25,10,21,24.00
2017,06,25,10,22,24.10
2017,06,25,10,23,24.00
2017,06,25,10,24,24.00
2017,06,25,10,25,24.00
2017,06,25,10,26,24.00
2017,06,25,10,27,24.00
2017,06,25,10,28,24.10
2017,06,25,10,29,24.10
2017,06,25,10,30,24.10
2017,06,25,10,31,24.10
2017,06,25,10,32,24.10
2017,06,25,10,33,24.20
2017,06,25,10,34,24.20
2017,06,25,10,35,24.10
2017,06,25,10,36,24.10
2017,06,25,10,37,24.20
2017,06,25,10,38,24.20
2017,06,25,10,39,24.10
2017,06,25,10,40,24.10
2017,06,25,10,41,24.20
2017,06,25,10,42,24.20
2017,06,25,10,43,24.30
2017,06,25,10,44,24.30
2017,06,25,10,45,24.30
2017,06,25,10,46,24.20
2017,06,25,10,47,24.30
2017,06,25,10,48,24.30
2017,06,25,10,49,24.40
2017,06,25,10,50,24.40
2017,06,25,10,51,24.50
2017,06,25,10,52,24.60
2017,06,25,10,53,24.60
2017,06,25,10,54,24.60
2017,06,25,10,55,24.60
2017,06,25,10,56,24.60
2017,06,25,10,57,24.70
2017,06,25,10,58,24.70
2017,06,25,10,59,24.70
2017,06,25,11,00,24.60
2017,06,25,11,01,24.50
2017,06,25,11,02,24.60
2017,06,25,11,03,24.60
2017,06,25,11,04,24.50
2017,06,25,11,05,24.50
2017,06,25,11,06,24.40
2017,06,25,11,07,24.30
2017,06,25,11,08,24.20
2017,06,25,11,09,24.20
2017,06,25,11,10,24.20
2017,06,25,11,11,24.30
2017,06,25,11,12,24.30
2017,06,25,11,13,24.30
2017,06,25,11,14,24.20
2017,06,25,11,15,24.20
2017,06,25,11,16,24.20
2017,06,25,11,17,24.20
2017,06,25,11,18,24.10
2017,06,25,11,19,24.10
2017,06,25,11,20,24.10
2017,06,25,11,21,24.00
2017,06,25,11,22,24.00
2017,06,25,11,23,23.90
2017,06,25,11,24,23.90
2017,06,25,11,25,23.90
2017,06,25,11,26,23.80
2017,06,25,11,27,23.80
2017,06,25,11,28,23.80
2017,06,25,11,29,23.90
2017,06,25,11,30,23.90
2017,06,25,11,31,23.90
2017,06,25,11,32,23.90
2017,06,25,11,33,23.80
2017,06,25,11,34,23.90
2017,06,25,11,35,23.90
2017,06,25,11,36,23.90
2017,06,25,11,37,23.90
2017,06,25,11,38,24.00
2017,06,25,11,39,24.10
2017,06,25,11,40,24.10
2017,06,25,11,41,24.20
2017,06,25,11,42,24.20
2017,06,25,11,43,24.20
2017,06,25,11,44,24.20
2017,06,25,11,45,24.20
2017,06,25,11,46,24.20
2017,06,25,11,47,24.20
2017,06,25,11,48,24.20
2017,06,25,11,49,24.20
2017,06,25,11,50,24.30
2017,06,25,11,51,24.30
2017,06,25,11,52,24.40
2017,06,25,11,53,24.50
2017,06,25,11,54,24.60
2017,06,25,11,55,24.70
2017,06,25,11,56,24.70
2017,06,25,11,57,24.80
2017,06,25,11,58,24.90
2017,06,25,11,59,25.00
2017,06,25,12,00,25.10
2017,06,25,12,01,25.10
2017,06,25,12,02,25.10
2017,06,25,12,03,25.10
2017,06,25,12,04,25.10
2017,06,25,12,05,25.00
2017,06,25,12,06,25.00
2017,06,25,12,07,24.90
2017,06,25,12,08,25.00
2017,06,25,12,09,25.00
2017,06,25,12,10,25.10
2017,06,25,12,11,25.10
2017,06,25,12,12,25.10
2017,06,25,12,13,25.10
2017,06,25,12,14,25.20
2017,06,25,12,15,25.30
2017,06,25,12,16,25.30
2017,06,25,12,17,25.30
2017,06,25,12,18,25.30
2017,06,25,12,19,25.20
2017,06,25,12,20,25.10
2017,06,25,12,21,25.00
2017,06,25,12,22,25.00
2017,06,25,12,23,25.10
2017,06,25,12,24,25.10
2017,06,25,12,25,25.10
2017,06,25,12,26,25.10
2017,06,25,12,27,25.00
2017,06,25,12,28,25.00
2017,06,25,12,29,25.00
2017,06,25,12,30,25.00
2017,06,25,12,31,24.90
2017,06,25,12,32,24.90
2017,06,25,12,33,24.90
2017,06,25,12,34,25.00
2017,06,25,12,35,25.10
2017,06,25,12,36,25.10
2017,06,25,12,37,25.20
2017,06,25,12,38,25.30
2017,06,25,12,39,25.40
2017,06,25,12,40,25.40
2017,06,25,12,41,25.50
2017,06,25,12,42,25.50
2017,06,25,12,43,25.50
2017,06,25,12,44,25.50
2017,06,25,12,45,25.70
2017,06,25,12,46,25.80
2017,06,25,12,47,25.80
2017,06,25,12,48,25.90
2017,06,25,12,49,26.00
2017,06,25,12,50,26.10
2017,06,25,12,51,26.20
2017,06,25,12,52,26.20
2017,06,25,12,53,26.20
2017,06,25,12,54,26.30
2017,06,25,12,55,26.30
2017,06,25,12,56,26.30
2017,06,25,12,57,26.40
2017,06,25,12,58,26.40
2017,06,25,12,59,26.50
2017,06,25,13,00,26.50
2017,06,25,13,01,26.40
2017,06,25,13,02,26.40
2017,06,25,13,03,26.50
2017,06,25,13,04,26.50
2017,06,25,13,05,26.60
2017,06,25,13,06,26.60
2017,06,25,13,07,26.60
2017,06,25,13,08,26.50
2017,06,25,13,09,26.40
2017,06,25,13,10,26.40
2017,06,25,13,11,26.40
2017,06,25,13,12,26.40
2017,06,25,13,13,26.30
2017,06,25,13,14,26.30
2017,06,25,13,15,26.30
2017,06,25,13,16,26.30
2017,06,25,13,17,26.30
2017,06,25,13,18,26.30
2017,06,25,13,19,26.20
2017,06,25,13,20,26.20
2017,06,25,13,21,26.10
2017,06,25,13,22,26.10
2017,06,25,13,23,26.10
2017,06,25,13,24,26.10
2017,06,25,13,25,26.20
2017,06,25,13,26,26.20
2017,06,25,13,27,26.20
2017,06,25,13,28,26.20
2017,06,25,13,29,26.20
2017,06,25,13,30,26.20
2017,06,25,13,31,26.20
2017,06,25,13,32,26.20
2017,06,25,13,33,26.30
2017,06,25,13,34,26.30
2017,06,25,13,35,26.40
2017,06,25,13,36,26.40
2017,06,25,13,37,26.50
2017,06,25,13,38,26.50
2017,06,25,13,39,26.60
2017,06,25,13,40,26.70
2017,06,25,13,41,26.80
2017,06,25,13,42,26.90
2017,06,25,13,43,27.00
2017,06,25,13,44,27.10
2017,06,25,13,45,27.20
2017,06,25,13,46,27.20
2017,06,25,13,47,27.20
2017,06,25,13,48,27.20
2017,06,25,13,49,27.30
2017,06,25,13,50,27.20
2017,06,25,13,51,27.30
2017,06,25,13,52,27.40
2017,06,25,13,53,27.50
2017,06,25,13,54,27.60
2017,06,25,13,55,27.60
2017,06,25,13,56,27.50
2017,06,25,13,57,27.40
2017,06,25,13,58,27.30
2017,06,25,13,59,27.30
2017,06,25,14,00,27.30
2017,06,25,14,01,27.40
2017,06,25,14,02,27.40
2017,06,25,14,03,27.40
2017,06,25,14,04,27.40
2017,06,25,14,05,27.50
2017,06,25,14,06,27.50
2017,06,25,14,07,27.60
2017,06,25,14,08,27.70
2017,06,25,14,09,27.70
2017,06,25,14,10,27.70
2017,06,25,14,11,27.70
2017,06,25,14,12,27.70
2017,06,25,14,13,27.70
2017,06,25,14,14,27.70
2017,06,25,14,15,27.70
2017,06,25,14,16,27.70
2017,06,25,14,17,27.70
2017,06,25,14,18,27.70
2017,06,25,14,19,27.70
2017,06,25,14,20,27.60
2017,06,25,14,21,27.60
2017,06,25,14,22,27.60
2017,06,25,14,23,27.70
2017,06,25,14,24,27.70
2017,06,25,14,25,27.80
2017,06,25,14,26,27.80
2017,06,25,14,27,27.90
2017,06,25,14,28,28.00
2017,06,25,14,29,28.10
2017,06,25,14,30,28.10
2017,06,25,14,31,28.10
2017,06,25,14,32,28.10
2017,06,25,14,33,28.10
2017,06,25,14,34,28.10
2017,06,25,14,35,28.10
2017,06,25,14,36,28.20
2017,06,25,14,37,28.20
2017,06,25,14,38,28.30
2017,06,25,14,39,28.40
2017,06,25,14,40,28.40
2017,06,25,14,41,28.50
2017,06,25,14,42,28.50
2017,06,25,14,43,28.60
2017,06,25,14,44,28.70
2017,06,25,14,45,28.70
2017,06,25,14,46,28.70
2017,06,25,14,47,28.70
2017,06,25,14,48,28.70
2017,06,25,14,49,28.70
2017,06,25,14,50,28.70
2017,06,25,14,51,28.70
2017,06,25,14,52,28.70
2017,06,25,14,53,28.70
2017,06,25,14,54,28.70
2017,06,25,14,55,28.60
2017,06,25,14,56,28.40
2017,06,25,14,57,28.30
2017,06,25,14,58,28.20
2017,06,25,14,59,28.10
2017,06,25,15,00,28.10
2017,06,25,15,01,28.10
2017,06,25,15,02,28.10
2017,06,25,15,03,28.10
2017,06,25,15,04,28.10
2017,06,25,15,05,28.10
2017,06,25,15,06,28.20
2017,06,25,15,07,28.30
2017,06,25,15,08,28.30
2017,06,25,15,09,28.30
2017,06,25,15,10,28.40
2017,06,25,15,11,28.40
2017,06,25,15,12,28.30
2017,06,25,15,13,28.20
2017,06,25,15,14,28.20
2017,06,25,15,15,28.10
2017,06,25,15,16,28.10
2017,06,25,15,17,28.10
2017,06,25,15,18,28.10
2017,06,25,15,19,28.10
2017,06,25,15,20,28.10
2017,06,25,15,21,28.10
2017,06,25,15,22,28.20
2017,06,25,15,23,28.20
2017,06,25,15,24,28.10
2017,06,25,15,25,28.10
2017,06,25,15,26,28.10
2017,06,25,15,27,28.10
2017,06,25,15,28,28.10
2017,06,25,15,29,28.10
2017,06,25,15,30,28.10
2017,06,25,15,31,28.10
2017,06,25,15,32,28.10
2017,06,25,15,33,28.10
2017,06,25,15,34,28.10
2017,06,25,15,35,28.10
2017,06,25,15,36,28.20
2017,06,25,15,37,28.20
2017,06,25,15,38,28.20
2017,06,25,15,39,28.20
2017,06,25,15,40,28.20
2017,06,25,15,41,28.20
2017,06,25,15,42,28.10
2017,06,25,15,43,28.10
2017,06,25,15,44,28.20
2017,06,25,15,45,28.20
2017,06,25,15,46,28.20
2017,06,25,15,47,28.20
2017,06,25,15,48,28.20
2017,06,25,15,49,28.20
2017,06,25,15,50,28.30
2017,06,25,15,51,28.40
2017,06,25,15,52,28.40
2017,06,25,15,53,28.50
2017,06,25,15,54,28.60
2017,06,25,15,55,28.70
2017,06,25,15,56,28.80
2017,06,25,15,57,28.90
2017,06,25,15,58,29.00
2017,06,25,15,59,29.20
2017,06,25,16,00,29.30
2017,06,25,16,01,29.30
2017,06,25,16,02,29.30
2017,06,25,16,03,29.30
2017,06,25,16,04,29.30
2017,06,25,16,05,29.30
2017,06,25,16,06,29.30
2017,06,25,16,07,29.30
2017,06,25,16,08,29.30
2017,06,25,16,09,29.50
2017,06,25,16,10,29.60
2017,06,25,16,11,29.70
2017,06,25,16,12,29.80
2017,06,25,16,13,29.70
2017,06,25,16,14,29.60
2017,06,25,16,15,29.40
2017,06,25,16,16,29.40
2017,06,25,16,17,29.20
2017,06,25,16,18,29.00
2017,06,25,16,19,28.90
2017,06,25,16,20,28.90
2017,06,25,16,21,28.90
2017,06,25,16,22,28.80
2017,06,25,16,23,28.80
2017,06,25,16,24,28.50
2017,06,25,16,25,28.20
2017,06,25,16,26,28.10
2017,06,25,16,27,28.00
2017,06,25,16,28,28.00
2017,06,25,16,29,28.10
2017,06,25,16,30,28.10
2017,06,25,16,31,28.10
2017,06,25,16,32,28.10
2017,06,25,16,33,28.10
2017,06,25,16,34,28.20
2017,06,25,16,35,28.20
2017,06,25,16,36,28.20
2017,06,25,16,37,28.20
2017,06,25,16,38,28.10
2017,06,25,16,39,28.10
2017,06,25,16,40,28.00
2017,06,25,16,41,28.00
2017,06,25,16,42,28.00
2017,06,25,16,43,28.00
2017,06,25,16,44,27.90
2017,06,25,16,45,27.90
2017,06,25,16,46,27.80
2017,06,25,16,47,27.80
2017,06,25,16,48,27.70
2017,06,25,16,49,27.70
2017,06,25,16,50,27.70
2017,06,25,16,51,27.70
2017,06,25,16,52,27.80
2017,06,25,16,53,27.80
2017,06,25,16,54,27.90
2017,06,25,16,55,27.90
2017,06,25,16,56,28.00
2017,06,25,16,57,28.10
2017,06,25,16,58,28.10
2017,06,25,16,59,28.10
2017,06,25,17,00,28.10
2017,06,25,17,01,28.10
2017,06,25,17,02,28.20
2017,06,25,17,03,28.20
2017,06,25,17,04,28.30
2017,06,25,17,05,28.30
2017,06,25,17,06,28.40
2017,06,25,17,07,28.40
2017,06,25,17,08,28.50
2017,06,25,17,09,28.60
2017,06,25,17,10,28.60
2017,06,25,17,11,28.70
2017,06,25,17,12,28.80
2017,06,25,17,13,28.90
2017,06,25,17,14,29.00
2017,06,25,17,15,29.10
2017,06,25,17,16,29.20
2017,06,25,17,17,29.30
2017,06,25,17,18,29.30
2017,06,25,17,19,29.30